Location: Augustenthal
(51.7167°N, 10.2833°E)
Time: 04:36:51
(UTC+00:00)

Helios 1A - Pass Details

Date: 18 May 2021
Orbit: 585 x 601 km, 98.2° (Epoch: 05 June)

Event Time Altitude Azimuth Distance (km) Brightness Sun altitude
Exits shadow 23:24:56 18° 120° (ESE) 1,459 4.7 -18.5°
Maximum altitude 23:27:23 34° 66° (ENE) 979 4.3 -18.5°
Drops below altitude 10° 23:31:09 10° 1° (N) 1,921 6.9 -18.4°
Sets 23:33:27 0° 352° (N) 2,826 8.0 -18.4°
